Showing default

ESSA 7 (TOS-E), 3345

Orbit data source: Space-Track

ESSA 7 (TOS-E), 3345 is a payload satellite owned by ESSA (US) in SSO that was launched on Fri, 16 Aug 1968 UTC via a THOR DELTA N launch vehicle from the Air Force Western Test Range (AFWTR). Payload-class satellites include a variety of spacecraft equipped with specific instruments for various scientific and technological missions. These include communications satellites like Starlink; space stations such as the ISS; scientific satellites like the Hubble; Earth observation satellites from companies like Planet Labs, Umbra, and HawkEye 360; GPS; miniature CubeSats for education and research; and military/defense satellites.

Loading next visibility...
Identifier
3345, 1968-069A
Orbit
SSO
Country
Flag of USUS
Related business
Manufacturer
RCA/East Windsor
Mission
Non-operational spacecraft
Bus & Motor
TIROS I, Unknown motor
Mass
154 kg wet, 154 kg dry
Launch date (UTC)
1968-08-16 (57 years ago)
Launch vehicle
THOR DELTA N
Launch site
Air Force Western Test Range (AFWTR)
Object type
Payload
Rocket body
Debris
Shape & HBR
Unknown
Radar Cross Section
Medium (>0.1 m² and <1 m²)

Expand to show TLE details & history
Last TLE update: 8 hours ago

TLE from 8 hours ago
0 ESSA 7 (TOS-E)
1 03345U 68069A   25286.87274764 -.00000019  00000-0  15571-3 0  9995
2 03345 101.5222 255.1086 0026414 288.6527  99.2894 12.53005912614136
Epoch: 2025-10-13T20:56Z
TLE epoch observation values (Epoch: 2025-10-13T20:56:45.396Z)
Latitude
27.66203°
Longitude
-87.85361°
Altitude
1,458.45 km
Speed
7.134 km/s
True Right ascension
16h 36m 01s
True Declination
27° 32' 01"
Sunlit
Object was in daylight at epoch
Visualization orbit readout
Latitude
Unknown
Longitude
Unknown
Altitude
Unknown
Speed
Unknown
Apparent Right ascension
Unknown
Apparent Declination
Unknown
Sunlit
N/A
Visualization observer readout
Local Sidereal Time
23:48:26
Azimuth
Unknown
Elevation
Unknown
Doppler factor
Unknown
Orbital elements
Apogee altitude
1,470.153 km
Perigee altitude
1,428.801 km
Semi-major axis
7,827.614 km
Eccentricity
0.00264
Inclination
101.5222°
RAAN
255.1086°
Arg. of periapsis
288.6527°
True anomaly
99.58795°
Mean anomaly
99.2894°
Eccentric anomaly
99.43869°
Mean motion
3.134 °/min
Orbital period
114.87 mins
BSTAR
0.00015571
Loading maneuver chart data...
Computing Atmospheric mass density...
Loading historical data...
Loading historical data...
Loading historical data...
Loading historical data...
Loading historical data...
Loading historical data...
Loading historical data...

Documentation

Showing up to 5 results
|